This demonstration page uses our WeatherBlox Daily Observations layout. Learn more.

Left ArrowRight Arrow

39.51506, -84.39828

Hourly Observations for July 20, 2021

Temp ( °F °C ) Dew Point ( °F °C ) Humidity (%) Winds ( mph kmh ) Pressure ( in mb ) Visibility ( mi km ) Precip ( " mm )
12:15 am 00:15 Clear 66 19 N/A N/A N N/A 30.10 1019 10 16 N/A
12:35 am 00:35 Clear 66 19 N/A N/A NE 5 7 30.09 1019 10 16 N/A
12:55 am 00:55 Clear 66 19 66 19 100 100 NE 5 7 30.09 1019 7 11 N/A
1:15 am 01:15 Clear 66 19 N/A N/A NE 3 6 30.09 1019 7 11 N/A
1:35 am 01:35 Clear 64 18 N/A N/A N N/A 30.08 1019 7 11 N/A
1:55 am 01:55 Hazy 66 19 N/A N/A NE 3 6 30.08 1019 7 11 N/A
2:15 am 02:15 Clear 66 19 N/A N/A N N/A 30.08 1019 7 11 N/A
2:35 am 02:35 Clear 66 19 N/A N/A NE 3 6 30.07 1018 7 11 N/A
2:55 am 02:55 Hazy 66 19 N/A N/A E 3 6 30.07 1018 7 11 N/A
3:15 am 03:15 Clear 66 19 N/A N/A E 3 6 30.06 1018 7 11 N/A
3:35 am 03:35 Hazy 66 19 N/A N/A E 3 6 30.06 1018 7 11 N/A
3:55 am 03:55 Clear 66 19 N/A N/A ESE 3 6 30.05 1018 7 11 N/A
4:15 am 04:15 Hazy 64 18 N/A N/A N N/A 30.05 1018 7 11 N/A
4:35 am 04:35 Hazy 64 18 N/A N/A N N/A 30.05 1018 5 8 N/A
4:55 am 04:55 Hazy 64 18 N/A N/A N N/A 30.05 1018 5 8 N/A
5:15 am 05:15 Hazy 64 18 N/A N/A N N/A 30.05 1018 7 11 N/A
5:35 am 05:35 Hazy 64 18 N/A N/A N N/A 30.06 1018 5 8 N/A
5:55 am 05:55 Clear with Mist and Fog 63 17 N/A N/A N N/A 30.06 1018 4 6 N/A
6:15 am 06:15 Clear with Mist and Fog 64 18 N/A N/A ENE 3 6 30.06 1018 4 6 N/A
6:35 am 06:35 Hazy 64 18 N/A N/A N N/A 30.06 1018 4 6 0.01 0.25
6:55 am 06:55 Sunny with Mist and Fog 64 18 N/A N/A NNE 3 6 30.06 1018 4 6 0.01 0.25
7:15 am 07:15 Sunny with Mist and Fog 64 18 N/A N/A NE 3 6 30.07 1018 4 6 N/A
7:35 am 07:35 Sunny with Mist and Fog 66 19 N/A N/A N N/A 30.07 1018 4 6 N/A
7:55 am 07:55 Sunny with Mist and Fog 66 19 N/A N/A N N/A 30.07 1018 4 6 N/A
8:15 am 08:15 Sunny with Mist and Fog 67 19.6 67 19.4 99 99 N N/A 30.07 1018 5 8 N/A
8:35 am 08:35 Sunny 69 20.3 67 19.6 96 96 NNE 3 6 30.06 1018 7 11 N/A
8:55 am 08:55 Sunny 70 21.2 68 20 93 93 NNW 5 7 30.07 1018 7 11 N/A
9:15 am 09:15 Sunny 72 22 68 19.9 88 88 N 5 7 30.07 1018 10 16 N/A
9:35 am 09:35 Sunny 73 22.9 68 20.1 84 84 NNE 5 7 30.08 1019 10 16 N/A
9:55 am 09:55 Sunny 74 23.3 68 20 82 82 NNE 5 7 30.08 1019 10 16 N/A
10:15 am 10:15 Sunny 75 24.1 69 20.5 80 80 NE 7 11 30.08 1018 10 16 N/A
10:35 am 10:35 Sunny 76 24.6 69 20.6 78 78 NE 5 7 30.06 1018 10 16 N/A
10:55 am 10:55 Sunny 77 25.2 70 21.1 78 78 ENE 5 7 30.06 1018 10 16 N/A
11:15 am 11:15 Sunny 78 25.8 70 20.9 74 74 N 5 7 30.06 1018 10 16 N/A
11:35 am 11:35 Sunny 79 26.3 70 20.9 72 72 ENE 6 9 30.06 1018 10 16 N/A
11:55 am 11:55 Partly Cloudy 80 26.6 69 20.4 69 69 N 3 6 30.05 1018 10 16 N/A
12:15 pm 12:15 Partly Cloudy 81 27.1 69 20.3 66 66 NE 6 9 30.05 1018 10 16 N/A
12:35 pm 12:35 Sunny 81 27.4 68 20.2 65 65 N 5 7 30.05 1018 10 16 N/A
12:55 pm 12:55 Mostly Cloudy 82 27.7 68 20.2 64 64 NNW 3 6 30.04 1017 10 16 N/A
1:15 pm 13:15 Partly Cloudy 82 27.6 68 20.1 64 64 NE 5 7 30.03 1017 7 11 N/A
1:35 pm 13:35 Hazy 82 27.9 68 19.8 61 61 E 3 6 30.03 1017 7 11 N/A
1:55 pm 13:55 Hazy 82 28 69 20.5 64 64 N N/A 30.02 1016 7 11 N/A
2:15 pm 14:15 Hazy 83 28.1 68 20.1 62 62 NNW 6 9 30.02 1016 7 11 N/A
2:35 pm 14:35 Sunny 83 28.2 67 19.6 60 60 NNE 3 6 30.01 1016 7 11 N/A
2:55 pm 14:55 Hazy 83 28.2 68 20 61 61 N N/A 30.00 1016 7 11 N/A
3:15 pm 15:15 Hazy 83 28.6 68 20.2 60 60 ENE 3 6 29.99 1016 7 11 N/A
3:35 pm 15:35 Hazy 84 29 69 20.3 59 59 NNW 6 9 29.98 1015 5 8 N/A
3:55 pm 15:55 Hazy 84 28.9 69 20.3 60 60 W 5 7 29.98 1015 7 11 N/A
4:15 pm 16:15 Mostly Cloudy with Haze 84 28.8 68 20 59 59 N 8 13 29.97 1015 7 11 N/A
4:35 pm 16:35 Hazy 84 29.1 68 20.2 59 59 WNW 6 9 29.97 1015 7 11 N/A
4:55 pm 16:55 Hazy 84 28.7 68 20 59 59 NW 5 7 29.97 1015 7 11 N/A
5:15 pm 17:15 Sunny 83 28.6 68 20.2 60 60 NNW 6 9 29.98 1015 7 11 0.01 0.25
5:35 pm 17:35 Partly Cloudy 84 29 68 20.2 59 59 WNW 8 13 29.96 1015 7 11 0.01 0.25
5:55 pm 17:55 Sunny 84 28.8 68 19.8 58 58 WNW 7 11 29.96 1015 7 11 0.01 0.25
6:15 pm 18:15 Sunny 83 28.6 68 19.8 59 59 WNW 7 11 29.97 1015 7 11 N/A
6:35 pm 18:35 Sunny 83 28.2 68 19.8 60 60 WNW 8 13 29.97 1015 7 11 N/A
6:55 pm 18:55 Sunny 82 27.9 68 19.9 62 62 NW 7 11 29.97 1015 7 11 N/A
7:15 pm 19:15 Sunny 82 27.5 69 20.4 65 65 NW 7 11 29.97 1015 10 16 N/A
7:35 pm 19:35 Sunny 81 27 69 20.7 68 68 NW 6 9 29.97 1015 7 11 N/A
7:55 pm 19:55 Sunny 80 26.4 71 21.7 75 75 NW 3 6 29.97 1015 7 11 N/A
8:15 pm 20:15 Partly Cloudy 77 25.2 73 22.8 87 87 NW 6 9 29.98 1015 7 11 N/A
8:35 pm 20:35 Sunny 78 25.4 69 20.6 75 75 NNW 6 9 29.98 1015 10 16 N/A
8:55 pm 20:55 Sunny 76 24.5 68 19.9 76 76 NNW 6 9 29.98 1015 10 16 N/A
9:15 pm 21:15 Clear 75 23.8 67 19.6 77 77 NNW 5 7 29.99 1015 10 16 N/A
9:35 pm 21:35 Clear 74 23.3 66 19.1 77 77 NNW 3 6 30.00 1016 10 16 N/A
9:55 pm 21:55 Clear 72 22.2 67 19.3 84 84 N N/A 30.00 1016 10 16 N/A
10:15 pm 22:15 Clear 71 21.5 68 19.9 91 91 N N/A 30.01 1016 10 16 N/A
10:35 pm 22:35 Clear 69 20.7 68 19.9 95 95 N 3 6 30.01 1016 10 16 N/A
10:55 pm 22:55 Clear 70 20.9 67 19.5 92 92 N N/A 30.01 1016 7 11 N/A
11:15 pm 23:15 Clear 69 20.8 67 19.5 92 92 N N/A 30.01 1016 10 16 N/A
11:35 pm 23:35 Clear 69 20.6 67 19.4 93 93 N N/A 30.01 1016 10 16 N/A
11:55 pm 23:55 Clear 68 19.8 67 19.2 96 96 N N/A 30.02 1016 10 16 N/A

Powered by AerisWeather